Weather History for KGTF - November, 2012

Change the Weather History Date:

Sunday, November 25, 2012

  Actual Average Record
Temperature  
Mean Temperature 26 °F 29 °F  
Max Temperature 32 °F 39 °F 67 °F (1914)
Min Temperature 20 °F 20 °F -21 °F (1985)
Degree Days  
Heating Degree Days 39 36  
Month to date heating degree days 664 767  
Since 1 July heating degree days 1489 1787  
Cooling Degree Days 0 0  
Month to date cooling degree days 0 0  
Year to date cooling degree days 484 298  
Moisture  
Dew Point 24 °F    
Average Humidity 87    
Maximum Humidity 92    
Minimum Humidity 81    
Precipitation  
Precipitation 0.03 in 0.01 in 0.64 in (1961)
Month to date precipitation 1.42 0.49  
Year to date precipitation 12.58 14.10  
Snow  
Snow 0.70 in 0.30 in 6.80 in (1983)
Month to date snowfall 16.5 6.6  
Since 1 July snowfall 21.6 12.2  
Since 1 September snowfall 21.6 11.9  
Snow Depth 0.00 in    
Sea Level Pressure  
Sea Level Pressure 30.08 in    
Wind  
Wind Speed 4 mph (WSW)    
Max Wind Speed 12 mph    
Max Gust Speed 13 mph    
Visibility 3 miles    
Events Fog , Snow    
T = Trace of Precipitation, MM = Missing Value Source: NWS Daily Summary

Daily Weather History Graph

Daily Weather History Graph

Search for Another Location

Airport or City:

Trip Planner

Search our weather history database for the weather conditions in past years. The results will help you decide how hot, cold, wet, or windy it might be!

Date:

Astronomy

Nov. 25, 2012 Rise Set
Actual Time 7:45 AM MST 4:39 PM MST
Civil Twilight 7:10 AM MST 5:14 PM MST
Nautical Twilight 6:32 AM MST 5:52 PM MST
Astronomical Twilight 5:55 AM MST 6:29 PM MST
Moon 3:05 PM MST (11/25) 4:54 AM MST (11/25)
Length of Visible Light 10h 03m
Length of Day
8h 54m
Waxing Gibbous, 93% of the Moon is Illuminated
Nov 25
Waxing Gibbous
Nov 28
Full
Dec 6
Last Quarter
Dec 13
New
Dec 19
First Quarter

Hourly Weather History & Observations

Time (MST) Temp. Windchill Dew Point Humidity Pressure Visibility Wind Dir Wind Speed Gust Speed Precip Events Conditions
12:53 AM 24.1 °F - 21.0 °F 88% 30.07 in 10.0 mi Calm Calm - N/A   Clear
1:12 AM 26.6 °F - 24.8 °F 93% 29.96 in 1.8 mi Calm Calm - N/A   Clear
1:15 AM 26.6 °F - 24.8 °F 93% 29.96 in 1.0 mi Calm Calm - N/A   Mist
1:22 AM 24.8 °F 20.5 °F 21.2 °F 86% 29.96 in 0.5 mi WSW 3.5 mph - N/A Fog Light Freezing Fog
1:33 AM 23.0 °F 17.0 °F 21.2 °F 93% 29.96 in 0.2 mi West 4.6 mph - N/A Fog Light Freezing Fog
1:44 AM 24.8 °F 20.5 °F 21.2 °F 86% 29.96 in 0.5 mi WNW 3.5 mph - N/A Fog Light Freezing Fog
1:53 AM 25.0 °F - 23.0 °F 92% 30.07 in 0.2 mi Calm Calm - N/A Fog Light Freezing Fog
2:11 AM 24.8 °F - 21.2 °F 86% 29.96 in 0.5 mi Calm Calm - N/A Fog Light Freezing Fog
2:19 AM 24.8 °F - 23.0 °F 93% 29.96 in 0.5 mi Calm Calm - N/A Fog Light Freezing Fog
2:40 AM 24.8 °F - 21.2 °F 86% 29.96 in 0.2 mi Calm Calm - N/A Fog Light Freezing Fog
2:48 AM 24.8 °F - 21.2 °F 86% 29.96 in 0.5 mi Calm Calm - N/A Fog Light Freezing Fog
2:53 AM 25.0 °F - 21.9 °F 88% 30.08 in 0.5 mi Calm Calm - N/A Fog Light Freezing Fog
3:00 AM 24.8 °F - 21.2 °F 86% 29.95 in 0.2 mi Calm Calm - N/A Fog Light Freezing Fog
3:27 AM 26.6 °F 22.6 °F 21.2 °F 80% 29.96 in 0.5 mi WSW 3.5 mph - N/A Fog Light Freezing Fog
3:34 AM 26.6 °F - 21.2 °F 80% 29.95 in 0.5 mi Calm Calm - N/A Fog Light Freezing Fog
3:49 AM 23.0 °F - 19.4 °F 86% 29.96 in 0.2 mi Calm Calm - N/A Fog Light Freezing Fog
3:53 AM 25.0 °F - 19.9 °F 81% 30.08 in 0.5 mi Calm Calm - N/A   Haze
4:01 AM 24.8 °F 20.5 °F 21.2 °F 86% 29.96 in 0.2 mi WNW 3.5 mph - N/A Fog Light Freezing Fog
4:15 AM 26.6 °F - 23.0 °F 86% 29.96 in 0.5 mi Calm Calm - N/A Fog Light Freezing Fog
4:23 AM 24.8 °F - 21.2 °F 86% 29.95 in 0.2 mi Calm Calm - N/A Fog Light Freezing Fog
4:35 AM 24.8 °F - 21.2 °F 86% 29.96 in 0.2 mi Calm Calm - N/A Fog Light Freezing Fog
4:53 AM 23.0 °F 15.8 °F 19.9 °F 88% 30.10 in 0.5 mi West 5.8 mph - N/A Fog Light Freezing Fog
5:16 AM 23.0 °F 18.4 °F 21.2 °F 93% 29.96 in 0.2 mi West 3.5 mph - N/A Fog Light Freezing Fog
5:53 AM 25.0 °F 20.7 °F 21.9 °F 88% 30.10 in 0.5 mi SW 3.5 mph - N/A Fog Light Freezing Fog
6:00 AM 24.8 °F - 21.2 °F 86% 29.97 in 1.5 mi Calm Calm - N/A   Overcast
6:03 AM 24.8 °F - 21.2 °F 86% 29.97 in 3.0 mi Calm Calm - N/A   Overcast
6:16 AM 24.8 °F - 21.2 °F 86% 29.97 in 1.8 mi Calm Calm - N/A   Overcast
6:27 AM 26.6 °F 22.6 °F 23.0 °F 86% 29.98 in 1.0 mi NW 3.5 mph - N/A   Overcast
6:32 AM 26.6 °F 21.2 °F 21.2 °F 80% 29.98 in 1.5 mi NNW 4.6 mph - N/A   Overcast
6:36 AM 26.6 °F 22.6 °F 23.0 °F 86% 29.98 in 3.0 mi NNW 3.5 mph - N/A   Overcast
6:53 AM 26.1 °F - 23.0 °F 88% 30.11 in 10.0 mi Calm Calm - N/A   Overcast
7:53 AM 21.9 °F - 18.0 °F 85% 30.14 in 10.0 mi Calm Calm - N/A   Scattered Clouds
8:53 AM 27.0 °F 23.0 °F 25.0 °F 92% 30.14 in 10.0 mi SW 3.5 mph - N/A   Overcast
9:53 AM 28.9 °F 21.1 °F 26.1 °F 89% 30.16 in 10.0 mi SW 8.1 mph - N/A   Overcast
10:53 AM 28.9 °F 23.9 °F 26.1 °F 89% 30.17 in 10.0 mi SSW 4.6 mph - N/A   Overcast
11:38 AM 30.2 °F 22.6 °F 26.6 °F 86% 30.04 in 2.5 mi SW 8.1 mph - 0.00 in Snow Light Snow
11:45 AM 30.2 °F 22.6 °F 28.4 °F 93% 30.03 in 3.0 mi SW 8.1 mph - 0.00 in Snow Light Snow
11:53 AM 30.0 °F 23.2 °F 27.0 °F 88% 30.16 in 3.0 mi SW 6.9 mph - 0.00 in Snow Light Snow
12:01 PM 30.2 °F 23.4 °F 28.4 °F 93% 30.04 in 2.5 mi SSW 6.9 mph - 0.00 in Snow Light Snow
12:16 PM 30.2 °F 23.4 °F 28.4 °F 93% 30.04 in 1.8 mi SSW 6.9 mph - 0.00 in Snow Light Snow
12:37 PM 30.2 °F 24.3 °F 28.4 °F 93% 30.04 in 3.0 mi SW 5.8 mph - 0.00 in Snow Light Snow
12:46 PM 30.2 °F 26.7 °F 28.4 °F 93% 30.04 in 1.8 mi SSW 3.5 mph - 0.00 in Snow Light Snow
12:53 PM 30.9 °F - 28.9 °F 92% 30.18 in 1.2 mi Calm Calm - 0.00 in Snow Light Snow
1:05 PM 30.2 °F 25.4 °F 28.4 °F 93% 30.04 in 1.5 mi SSW 4.6 mph - 0.00 in Snow Light Snow
1:10 PM 30.2 °F - 28.4 °F 93% 30.04 in 5.0 mi Calm Calm - 0.00 in Snow Light Snow
1:17 PM 32.0 °F - 28.4 °F 87% 30.04 in 9.0 mi Calm Calm - 0.00 in   Overcast
1:49 PM 32.0 °F - 28.4 °F 87% 30.04 in 5.0 mi Calm Calm - 0.00 in Snow Light Snow
1:53 PM 32.0 °F - 28.9 °F 88% 30.18 in 2.5 mi Calm Calm - 0.00 in Snow Light Snow
1:57 PM 32.0 °F - 28.4 °F 87% 30.05 in 1.8 mi Calm Calm - 0.00 in Snow Light Snow
2:08 PM 32.0 °F 25.6 °F 28.4 °F 87% 30.05 in 1.0 mi NNW 6.9 mph - 0.01 in Snow Light Snow
2:17 PM 32.0 °F 27.5 °F 28.4 °F 87% 30.05 in 0.5 mi North 4.6 mph - 0.01 in Fog , Snow Snow
2:22 PM 32.0 °F 28.7 °F 28.4 °F 87% 30.05 in 0.2 mi North 3.5 mph - 0.02 in Fog , Snow Snow
2:31 PM 32.0 °F 27.5 °F 28.4 °F 87% 30.05 in 0.8 mi North 4.6 mph - 0.03 in Snow Light Snow
2:33 PM 32.0 °F 26.4 °F 28.4 °F 87% 30.06 in 1.0 mi North 5.8 mph - 0.03 in Snow Light Snow
2:37 PM 32.0 °F 26.4 °F 28.4 °F 87% 30.06 in 2.0 mi North 5.8 mph - 0.03 in Snow Light Snow
2:48 PM 30.2 °F 23.4 °F 28.4 °F 93% 30.06 in 4.0 mi North 6.9 mph - 0.03 in Snow Light Snow
2:49 PM 30.9 °F 23.5 °F 28.0 °F 89% 30.20 in 4.0 mi North 8.1 mph - 0.03 in Snow Light Snow
2:59 PM 30.2 °F 25.4 °F 28.4 °F 93% 30.07 in 10.0 mi North 4.6 mph - 0.00 in   Overcast
3:12 PM 30.2 °F - 28.4 °F 93% 30.07 in 10.0 mi Calm Calm - 0.00 in   Overcast
3:53 PM 30.0 °F - 27.0 °F 88% 30.23 in 10.0 mi Calm Calm - 0.00 in   Mostly Cloudy
4:53 PM 28.0 °F 22.8 °F 25.0 °F 88% 30.27 in 10.0 mi SW 4.6 mph - N/A   Overcast
5:53 PM 25.0 °F 18.1 °F 23.0 °F 92% 30.29 in 9.0 mi SW 5.8 mph - N/A   Mostly Cloudy
6:01 PM 24.8 °F 15.3 °F 21.2 °F 86% 30.13 in 1.8 mi SW 9.2 mph - N/A   Mostly Cloudy
6:05 PM 24.8 °F 15.3 °F 21.2 °F 86% 30.13 in 0.8 mi SW 9.2 mph - N/A   Mostly Cloudy
6:13 PM 26.6 °F 18.2 °F 21.2 °F 80% 30.13 in 0.5 mi SW 8.1 mph - N/A Fog Light Freezing Fog
6:18 PM 26.6 °F 18.2 °F 24.8 °F 93% 30.13 in 0.2 mi SW 8.1 mph - N/A Fog Light Freezing Fog
6:53 PM 24.1 °F 19.7 °F 19.9 °F 84% 30.32 in 0.2 mi SW 3.5 mph - N/A   Mist
7:53 PM 26.1 °F 18.4 °F 24.1 °F 92% 30.34 in 0.2 mi SW 6.9 mph - N/A Fog Light Freezing Fog
8:08 PM 26.6 °F 19.1 °F 24.8 °F 93% 30.17 in 0.5 mi SSW 6.9 mph - N/A   Overcast
8:11 PM 26.6 °F 19.1 °F 24.8 °F 93% 30.17 in 2.0 mi SSW 6.9 mph - N/A   Overcast
8:18 PM 26.6 °F 21.2 °F 24.8 °F 93% 30.17 in 10.0 mi SSW 4.6 mph - N/A   Overcast
8:53 PM 21.9 °F 14.5 °F 19.0 °F 89% 30.34 in 10.0 mi SW 5.8 mph - N/A   Scattered Clouds
9:53 PM 23.0 °F 17.0 °F 19.0 °F 85% 30.35 in 10.0 mi South 4.6 mph - N/A   Clear
10:53 PM 23.0 °F 12.4 °F 19.0 °F 85% 30.35 in 10.0 mi SSW 10.4 mph - N/A   Clear
11:53 PM 21.0 °F 9.9 °F 17.1 °F 85% 30.36 in 10.0 mi SW 10.4 mph - N/A   Clear